Wind_Speed
13 12 13 14 15 16 17 18 19 20 21 22 23 23 24 24 25 25 25 25 25 26 26 26 26 26 26 26 26 26 26 26 26 26 26 25 25 25 26 26 25 25 24 23 24 26 27 27 26 26 27 29 31 33 34 34 36 38 39 39 39 39 39 38 36 34 36 38 36 35 34 32 31 31 32 32 32 30 28 27 26 25 24 23 22
14 14 15 16 17 18 19 20 21 22 23 24 25 25 26 26 27 27 27 27 27 28 28 28 28 28 28 28 29 28 28 29 29 28 28 28 27 27 26 26 26 26 26 25 24 24 25 27 28 27 27 27 29 32 33 34 36 38 40 40 40 40 40 39 38 37 37 39 38 36 35 33 32 32 33 33 33 31 30 29 28 27 26 25 24
16 16 17 18 19 20 21 22 23 23 25 26 27 28 28 29 29 29 29 29 30 30 30 30 30 30 30 30 31 31 31 31 31 30 31 30 30 29 28 27 27 27 27 27 27 26 25 25 28 29 28 27 27 30 31 33 34 36 39 41 41 41 40 40 40 39 38 39 40 39 37 36 33 33 34 34 34 33 31 31 30 29 28 27 26
18 19 20 20 21 22 23 24 24 25 27 28 29 30 30 31 31 31 31 31 32 32 31 31 31 31 32 32 32 32 32 32 32 32 32 32 32 32 31 30 29 28 28 28 28 28 26 25 26 28 29 28 27 28 30 31 33 34 36 39 41 41 41 41 41 41 40 40 41 41 41 39 36 34 34 34 34 34 33 33 32 31 31 30 29
21 22 22 23 24 25 26 26 27 28 29 31 31 32 32 33 33 33 33 33 33 33 33 33 33 33 33 33 34 34 33 33 33 33 33 33 33 33 33 33 32 31 30 29 29 29 28 27 26 27 28 29 28 27 28 29 31 32 33 36 39 40 42 42 41 41 41 40 41 43 44 42 39 37 36 35 35 34 34 33 33 33 33 32 31
24 25 26 27 27 28 28 29 30 31 32 33 33 34 34 34 35 34 34 34 34 34 34 35 35 35 35 35 35 35 35 35 35 35 35 35 34 34 35 34 34 33 32 31 30 30 29 29 28 28 28 29 29 29 28 28 29 30 31 33 35 38 40 42 42 41 41 41 42 44 45 45 43 41 38 37 36 35 34 33 34 34 34 34 33
26 27 29 29 30 31 31 32 32 33 34 34 35 35 35 36 36 36 36 36 36 36 36 36 37 37 37 37 37 37 37 37 37 36 36 36 36 35 35 35 35 34 33 33 32 32 31 30 30 29 29 29 30 31 31 31 30 30 31 32 34 35 37 40 42 42 42 42 42 43 45 47 46 44 42 40 38 36 34 34 34 35 35 35 35
29 30 31 32 33 33 34 33 33 34 35 35 35 36 36 36 37 37 37 37 37 37 38 38 38 38 38 38 38 38 38 38 38 38 38 37 37 37 37 36 36 35 34 34 34 33 33 32 32 31 31 31 31 33 34 34 33 32 32 32 33 35 35 36 39 42 43 43 42 42 44 47 48 47 46 44 41 38 37 36 36 36 36 36 36
32 33 34 34 34 34 34 34 34 35 35 36 36 37 37 37 38 38 38 39 39 39 39 40 40 40 40 40 39 39 39 39 39 39 39 38 38 38 38 38 37 37 36 35 35 35 35 34 34 33 33 33 32 33 34 36 37 36 35 35 34 34 35 35 36 39 42 44 44 43 43 45 48 50 49 46 44 42 41 40 38 37 38 38 37
33 34 34 34 34 34 34 35 35 36 37 37 38 38 38 39 39 39 40 40 40 40 41 41 41 41 41 40 40 40 40 40 40 40 40 39 39 39 39 39 38 38 37 37 37 37 36 36 36 35 35 35 35 34 34 35 37 37 37 37 36 35 35 35 36 36 38 41 43 44 44 43 46 50 51 48 46 46 45 43 40 39 40 40 38
33 33 33 33 34 35 36 36 37 38 38 38 38 39 39 40 40 40 41 41 41 41 41 41 41 41 40 40 40 40 40 40 40 41 41 40 40 40 39 39 39 39 39 39 39 39 39 38 37 37 37 37 36 36 36 35 36 37 37 38 38 38 36 35 36 36 36 38 40 43 45 44 43 47 50 49 48 48 47 46 44 42 41 41 40
32 33 33 34 34 36 37 38 39 39 39 39 39 40 40 40 40 41 41 41 41 41 41 41 40 40 40 40 40 40 40 41 41 41 41 41 41 40 40 39 40 40 40 40 40 40 40 40 40 39 38 38 38 38 38 37 36 37 37 37 38 38 38 36 36 36 36 37 37 39 43 44 42 44 47 50 50 50 50 49 47 45 44 43 42
32 33 34 34 35 37 38 39 40 40 41 41 41 41 41 40 40 40 40 40 40 40 40 40 40 40 39 39 40 40 41 41 41 41 41 41 41 41 40 40 40 41 41 41 41 41 42 42 42 41 41 40 39 39 39 39 38 38 37 37 37 37 38 38 37 37 37 37 36 37 38 41 43 44 46 49 50 52 52 51 49 48 47 46 45
33 34 35 36 37 38 39 40 40 41 41 41 41 41 41 40 40 40 39 39 39 39 39 39 39 40 40 40 40 40 41 41 41 42 42 42 42 42 42 42 42 43 43 43 42 42 42 42 42 42 42 42 41 41 41 40 40 39 38 38 37 36 37 38 38 38 38 37 37 36 36 39 41 43 46 49 50 51 52 52 51 50 50 49 48
34 35 36 37 38 39 40 40 41 41 42 41 41 41 41 40 40 39 39 39 39 39 39 39 39 40 40 40 40 40 41 41 42 42 43 43 43 44 44 44 44 44 43 43 43 43 43 43 43 43 43 43 43 43 43 42 42 41 40 39 38 37 36 37 38 39 39 39 37 36 36 38 40 42 46 50 50 50 50 52 52 52 52 50 49
36 37 38 39 40 40 41 41 41 42 42 41 41 41 40 40 39 39 38 38 38 39 39 39 39 40 40 41 41 41 42 42 43 43 44 44 44 44 44 44 44 44 44 44 44 44 43 44 44 44 44 44 44 44 44 44 43 42 41 40 39 38 37 36 38 39 40 40 39 37 36 38 39 40 43 49 51 51 51 52 52 53 53 51 50
37 38 39 40 41 41 41 41 41 41 40 40 40 39 39 39 39 38 38 38 38 39 39 39 40 40 41 41 41 42 42 44 44 44 45 45 46 46 46 45 45 45 45 45 46 45 45 44 45 45 45 45 45 46 45 45 44 43 42 41 40 39 38 37 38 39 40 40 40 38 37 38 39 39 41 46 50 52 53 52 51 51 53 53 52
38 39 39 40 40 41 41 40 40 39 39 38 38 38 39 39 39 39 38 38 39 39 39 40 40 41 42 42 43 43 44 45 46 46 47 47 47 47 47 47 46 46 46 46 46 46 46 45 45 45 45 46 46 46 46 45 45 43 43 42 41 40 39 39 39 39 39 40 40 39 38 38 39 39 40 43 47 51 54 52 49 50 53 54 54
37 38 39 39 40 40 39 39 39 38 38 38 38 38 38 38 38 39 39 39 39 40 40 41 41 42 43 44 44 44 45 45 46 47 47 48 48 48 48 48 47 47 47 47 47 47 46 46 46 46 46 46 46 46 46 45 45 44 43 43 42 41 40 40 40 39 39 39 40 40 39 39 39 39 39 41 44 49 52 51 49 50 51 51 53
37 38 38 39 39 38 38 38 38 38 38 38 38 38 38 38 38 39 39 40 40 41 41 42 42 43 43 44 44 44 45 45 46 47 48 48 49 49 49 49 49 49 48 48 48 48 48 48 47 47 47 47 47 47 46 46 45 45 44 43 42 42 42 42 41 41 40 39 39 40 40 40 40 39 40 40 41 45 49 50 49 50 49 48 51
37 37 38 37 37 37 37 37 37 37 37 37 37 38 38 38 39 39 40 41 41 42 42 42 42 42 43 44 45 46 47 47 47 48 48 49 50 50 50 50 50 50 49 49 49 49 49 49 49 49 48 48 48 48 47 47 46 46 45 44 44 44 44 43 43 42 41 40 40 40 41 41 40 39 39 40 40 42 45 48 50 51 50 48 48
36 36 37 37 37 37 37 37 37 37 37 37 37 38 39 39 40 41 41 42 42 42 42 42 42 43 44 45 46 47 48 48 48 48 48 48 49 49 49 49 49 49 49 48 48 48 48 49 49 50 50 49 49 49 49 48 47 47 46 46 46 46 46 45 45 44 43 42 42 40 41 42 42 40 39 39 40 40 42 45 49 51 50 48 48
36 37 37 37 37 37 37 37 37 37 38 38 38 39 40 41 42 42 42 42 42 42 42 43 43 44 45 46 46 47 47 47 47 47 46 46 46 46 46 46 46 47 47 46 46 46 46 47 48 49 50 50 50 50 50 50 49 48 48 48 48 47 47 47 46 46 45 44 43 42 41 41 42 41 40 39 41 41 41 44 48 52 52 50 48
37 37 37 37 37 36 36 37 37 38 38 39 40 41 41 42 42 42 42 43 42 43 43 44 44 44 44 44 45 45 45 45 44 43 43 43 43 43 43 43 44 44 44 43 43 43 44 45 46 48 49 49 49 50 50 49 49 49 49 49 48 48 47 47 47 46 46 45 44 43 42 41 42 43 41 41 41 42 42 43 47 51 52 50 48
37 37 37 36 36 36 36 37 38 39 39 40 41 42 42 42 42 42 42 43 44 44 44 44 44 44 43 43 42 42 42 42 42 42 42 42 42 43 43 44 44 44 43 43 42 41 41 42 44 45 46 47 48 49 49 48 48 47 47 47 47 46 46 46 46 46 45 45 44 44 42 42 42 43 42 42 41 42 41 42 46 49 50 50 49
37 36 36 36 36 36 37 38 39 40 41 42 42 43 43 42 42 42 43 44 44 44 44 44 43 43 42 41 40 40 40 41 42 43 43 42 42 42 43 43 43 44 43 43 42 41 40 40 41 42 44 45 46 47 47 47 46 45 45 45 45 45 44 44 44 44 44 44 44 44 43 42 43 43 43 42 42 41 41 42 45 48 50 50 51
36 35 36 36 36 37 38 39 40 41 42 42 42 42 43 43 43 43 43 43 44 43 43 43 43 42 40 39 39 39 40 41 42 43 42 42 41 40 40 40 40 40 41 41 41 41 40 39 39 40 42 43 44 45 45 46 45 44 43 43 43 43 42 42 42 42 42 43 43 43 43 42 42 43 43 43 41 41 41 42 43 47 50 50 51
35 35 36 36 37 38 39 40 41 42 42 42 42 42 43 43 43 44 44 44 43 43 42 42 41 40 39 38 39 39 39 40 41 41 41 41 40 39 37 37 36 36 37 38 39 39 38 38 38 39 40 41 42 43 44 44 44 42 41 41 41 41 41 41 41 41 41 42 42 42 42 42 42 42 42 42 41 40 41 41 42 45 48 51 51
35 36 36 37 38 39 40 41 41 41 41 41 41 42 43 44 44 43 43 43 43 43 42 41 40 39 38 39 38 37 36 36 37 38 39 40 39 37 36 34 33 34 35 36 36 36 36 36 36 37 38 39 39 41 42 42 41 40 39 39 39 39 40 40 40 40 40 41 41 41 42 41 41 41 41 41 40 40 41 41 42 44 47 50 50
35 36 37 38 39 40 41 41 40 40 40 41 41 41 42 44 44 43 42 42 42 42 41 40 39 38 38 38 37 36 34 33 32 33 36 38 38 36 33 32 31 31 31 33 33 33 33 33 33 33 34 35 36 37 38 39 38 38 38 38 38 38 38 39 38 38 39 40 40 40 41 40 39 40 40 40 40 41 40 40 42 44 46 47 47
36 37 38 39 40 40 40 39 39 40 40 41 41 41 41 41 43 43 42 40 40 41 41 40 40 39 38 37 36 34 33 31 29 29 31 34 36 34 32 30 30 29 28 28 29 30 30 30 30 30 30 31 32 33 34 35 35 35 35 36 36 36 37 37 37 37 37 38 38 38 39 39 38 38 40 40 40 40 40 39 40 42 44 44 44
36 37 39 39 39 39 39 38 39 40 40 41 41 41 40 39 39 41 41 40 40 41 42 41 40 39 38 37 35 33 31 30 29 28 29 32 33 32 31 30 30 29 27 25 25 26 27 27 27 26 26 26 27 28 30 31 32 32 33 33 33 34 34 34 35 35 35 35 35 36 37 37 37 38 39 39 38 38 38 38 40 41 42 43 44
37 38 39 39 38 38 38 38 39 39 40 40 40 40 40 38 38 38 40 41 41 42 42 41 40 39 38 37 35 33 31 31 30 30 30 31 32 31 30 30 30 29 27 25 24 23 24 24 24 24 23 23 23 24 26 28 29 29 29 30 30 30 31 31 32 32 32 32 34 34 34 35 36 37 38 37 37 36 35 36 38 40 41 42 43
37 38 38 37 37 37 37 38 38 39 39 39 39 39 39 38 38 38 40 41 40 40 40 40 40 39 37 36 35 33 32 33 32 31 30 30 30 29 29 29 29 28 26 25 24 23 22 22 22 22 22 22 22 23 24 24 25 25 25 26 26 27 28 28 28 29 29 31 32 32 33 33 35 36 36 36 35 34 33 33 35 37 39 40 41
37 37 36 36 36 36 37 38 38 38 38 38 38 38 38 38 39 40 40 39 38 36 36 37 38 38 37 35 34 33 33 33 33 31 29 29 28 27 27 27 27 26 25 24 23 22 21 20 19 19 19 19 20 21 21 21 21 22 23 24 24 25 25 26 26 27 28 29 30 31 31 32 34 35 35 35 34 33 32 32 33 35 36 36 37
36 35 35 35 36 37 37 38 38 38 37 37 37 37 38 39 40 39 38 37 36 35 34 34 35 35 35 34 33 32 32 33 32 30 27 27 26 25 25 25 25 24 23 22 20 20 19 18 17 16 16 17 17 18 19 19 20 21 22 23 23 24 24 25 25 25 26 27 28 29 30 31 33 34 34 33 32 32 32 31 31 32 32 32 33
34 34 34 35 36 37 37 37 37 37 37 37 37 38 39 39 39 37 36 36 36 35 34 34 33 33 33 33 32 31 31 32 31 28 25 25 24 24 23 23 22 22 20 18 17 16 15 14 14 14 14 15 16 17 18 19 20 21 21 22 23 24 24 24 24 24 25 26 26 27 29 31 33 33 32 31 30 31 32 31 30 31 30 30 32
33 33 34 35 35 36 35 35 36 36 36 37 37 39 39 38 37 36 36 37 37 36 35 35 34 33 32 32 31 31 31 31 29 26 24 23 22 22 21 21 20 19 18 16 14 13 13 12 12 12 13 14 15 16 17 18 19 20 21 22 23 23 24 24 24 23 23 25 26 27 28 31 32 32 30 29 29 31 31 31 32 32 31 31 30
33 34 34 34 34 34 34 34 35 35 36 37 38 38 38 37 36 36 37 37 37 36 36 35 35 34 33 32 30 29 29 28 27 24 22 21 21 21 20 19 18 17 16 15 13 12 12 12 11 11 12 13 13 14 15 16 17 18 19 19 20 21 21 21 21 20 20 22 24 25 27 29 29 29 28 28 30 31 32 33 34 34 31 29 28
33 33 33 33 32 32 32 33 34 35 36 37 38 38 37 37 36 36 37 37 36 36 35 35 35 34 32 31 29 27 26 25 24 22 21 20 19 19 18 18 17 15 14 13 12 12 11 11 11 11 11 11 11 12 12 14 15 15 15 16 16 17 18 18 18 18 18 19 21 22 24 26 26 26 27 28 30 31 31 31 31 30 28 26 26
32 32 31 31 31 31 32 33 34 35 36 37 37 37 36 36 35 35 36 35 35 34 33 33 33 32 30 30 29 28 24 22 21 20 20 19 18 17 16 16 16 15 13 13 12 11 10 9 9 10 10 10 10 11 11 12 13 13 13 13 14 14 15 16 16 16 17 17 18 20 22 23 24 24 26 28 28 28 28 26 26 26 26 25 25
31 30 29 29 29 30 31 32 33 35 36 37 37 37 35 35 34 34 34 34 33 31 31 31 30 30 29 29 29 27 23 19 17 17 17 16 16 15 14 14 14 13 12 11 11 10 9 8 8 9 8 8 9 9 9 10 10 9 10 11 12 13 14 14 14 14 15 16 17 18 19 20 22 22 24 26 25 24 24 24 23 23 24 23 23
29 28 27 28 28 29 30 31 33 34 36 37 37 36 35 34 34 34 34 33 31 30 30 30 28 27 27 27 26 23 19 15 14 13 13 13 13 12 12 12 12 12 11 10 10 9 8 7 7 7 7 7 7 6 6 6 6 6 7 9 10 12 12 12 12 13 13 14 16 17 17 18 20 21 23 24 23 22 22 22 23 22 22 22 24
26 26 26 27 28 28 29 31 31 33 35 36 36 35 35 35 35 34 34 33 31 30 30 29 27 25 25 24 23 20 17 14 13 12 11 12 11 11 10 11 11 11 10 9 8 8 7 6 6 6 5 5 4 4 5 6 6 6 7 8 9 10 10 10 10 10 11 12 15 17 18 19 20 21 22 22 21 20 21 22 22 22 22 23 23
25 25 26 26 26 28 29 30 30 32 34 35 36 37 37 37 37 36 35 33 31 29 29 28 26 23 22 21 19 18 16 15 13 12 12 11 11 10 10 11 11 9 8 7 7 6 5 5 5 4 3 4 5 7 8 8 7 5 5 6 7 7 7 7 8 10 11 13 14 16 17 19 20 20 21 21 20 20 20 21 21 21 21 20 20
24 24 25 25 26 27 28 29 29 31 33 35 36 37 37 38 38 37 35 32 29 27 26 25 24 22 20 18 17 16 16 16 15 14 12 11 10 10 10 10 9 8 6 6 6 5 4 3 3 3 4 6 8 10 10 9 7 5 4 4 5 5 5 3 4 7 9 10 12 14 16 18 19 19 19 18 18 18 18 18 18 17 17 17 17
23 24 24 24 25 26 27 28 29 30 32 34 35 36 37 38 39 38 34 31 27 25 23 22 22 21 19 16 15 15 16 16 16 15 14 13 11 11 11 10 8 7 7 6 5 4 3 2 2 3 4 6 7 8 9 9 8 5 4 4 4 4 3 3 5 7 8 10 11 12 13 14 15 16 16 15 16 16 15 14 14 16 16 15 15
23 23 24 24 24 25 26 27 28 29 31 32 34 35 37 38 40 39 35 30 26 23 20 19 20 21 19 16 14 13 13 15 17 17 16 14 11 10 9 8 7 7 7 5 3 2 2 2 3 3 4 5 6 6 8 8 7 5 4 3 2 2 3 5 5 5 7 9 11 11 10 10 10 12 12 12 12 12 12 11 11 13 14 12 10
23 23 23 23 23 25 25 26 26 28 29 31 32 34 36 38 40 40 37 31 25 20 17 17 19 20 19 18 15 11 10 13 17 18 16 14 12 10 9 8 7 7 6 3 1 3 3 3 4 4 5 7 8 8 8 8 7 6 6 5 4 4 5 6 6 5 5 7 8 9 9 8 8 9 9 9 9 9 10 10 9 9 10 10 8
22 22 22 22 22 24 24 25 25 26 27 29 31 33 35 37 39 40 39 33 25 18 15 16 18 19 19 19 16 12 9 10 13 15 15 16 15 13 12 10 8 7 6 3 2 3 4 5 6 6 7 8 9 9 9 7 8 9 8 6 5 5 6 7 7 7 6 6 7 8 8 7 7 7 7 8 9 8 8 8 7 6 6 7 8
21 21 21 21 21 22 23 23 24 25 26 28 29 31 33 36 38 40 40 35 25 16 14 16 17 17 18 18 17 13 10 10 10 12 14 18 21 19 15 13 10 8 5 3 4 5 6 7 7 7 8 9 9 9 9 8 9 9 8 7 6 6 6 7 7 7 6 7 8 8 8 8 8 8 8 10 10 9 8 7 7 7 7 7 8
Wind_Direction
268 274 280 284 286 288 289 291 293 294 296 297 297 298 298 298 298 298 298 298 297 297 297 297 297 297 297 297 297 297 297 297 297 296 296 295 295 295 295 296 295 293 290 288 287 288 289 288 284 277 271 267 265 264 262 258 255 254 254 251 249 248 247 246 242 239 245 249 248 247 248 246 245 246 245 245 245 244 243 245 246 246 245 244 243
271 276 279 280 282 284 287 289 291 293 295 296 296 296 296 296 296 296 296 295 295 295 295 295 295 295 295 295 295 295 295 295 295 295 294 293 292 292 292 292 293 292 291 289 286 285 286 287 286 283 277 272 268 266 265 262 257 254 255 255 253 250 247 247 243 238 241 248 249 247 247 246 245 246 247 246 246 245 244 244 245 246 246 247 245
271 274 275 278 280 283 286 288 291 293 295 295 296 296 295 295 295 294 294 294 294 294 294 294 294 293 293 292 292 292 292 292 292 292 292 291 291 291 291 291 290 289 288 288 287 285 283 283 284 284 283 277 272 268 267 265 261 257 254 254 254 253 250 248 246 240 239 244 249 249 248 246 244 245 247 248 248 247 245 244 244 245 247 248 248
273 275 276 279 281 283 285 287 291 294 296 296 296 295 295 294 294 293 292 292 292 291 291 291 290 290 289 289 288 288 288 288 288 289 289 289 289 289 290 290 289 288 287 285 285 284 283 281 279 281 283 280 275 271 269 267 265 262 258 255 253 253 253 251 250 245 241 242 247 250 250 248 245 244 246 247 248 248 246 245 245 245 246 247 248
278 279 279 279 280 283 285 289 292 294 296 296 296 295 295 294 293 292 291 290 290 290 289 289 289 288 288 287 287 286 286 286 286 286 287 287 286 287 287 288 289 288 287 285 283 282 281 280 278 276 278 279 276 273 271 270 268 266 264 261 257 254 253 253 252 250 246 243 244 248 250 250 248 246 245 246 247 248 247 247 247 246 246 246 246
278 278 278 279 281 284 286 289 292 294 296 296 296 296 295 294 293 291 290 290 289 289 289 289 288 288 287 287 286 286 286 286 285 285 285 285 284 284 283 284 285 286 286 285 283 281 279 278 277 275 274 274 274 272 271 271 271 270 268 266 263 258 254 252 251 250 249 245 243 244 248 250 250 248 246 245 245 246 247 247 248 248 247 246 245
277 278 278 280 282 284 287 290 293 295 296 297 297 296 295 294 293 292 291 291 290 289 289 288 288 287 287 286 285 285 285 285 284 284 284 284 283 282 281 280 281 282 283 283 282 281 279 277 275 274 272 271 271 271 270 270 271 272 271 269 267 264 258 254 251 249 248 246 244 243 244 247 249 249 248 246 245 244 245 246 246 247 247 246 245
278 278 279 281 284 286 289 293 295 297 297 297 296 295 294 293 293 293 292 291 290 289 288 288 287 286 286 285 285 284 283 283 283 283 283 283 283 282 280 278 278 279 280 280 280 279 279 277 274 273 272 270 269 269 269 269 268 269 271 271 270 268 265 260 254 250 247 245 244 243 243 244 246 248 248 247 245 244 244 243 243 245 246 245 245
279 280 282 284 287 290 293 295 297 298 297 296 295 294 293 293 292 292 292 291 290 289 288 288 287 286 286 285 284 283 282 282 281 281 281 282 282 281 279 277 276 277 277 278 278 277 276 275 274 272 271 270 269 268 268 269 268 268 268 269 271 270 269 265 260 255 250 246 244 244 244 244 244 244 246 247 246 244 244 242 241 244 246 245 245
280 282 285 288 290 293 296 297 297 297 296 294 294 294 293 293 293 293 292 291 290 289 289 288 287 286 285 284 283 282 282 281 281 281 281 281 281 280 278 276 275 275 276 277 277 276 274 273 271 271 270 269 269 268 268 269 269 268 267 266 267 268 268 268 265 261 256 250 245 244 245 246 244 241 241 243 245 244 244 243 241 242 245 246 245
283 285 289 292 294 296 297 297 297 296 295 294 294 294 294 294 294 293 292 292 291 289 288 287 286 285 284 284 283 282 282 282 281 281 281 280 280 279 277 275 274 274 274 275 275 275 274 272 270 268 267 267 267 267 267 267 268 268 268 265 264 263 264 266 266 264 260 256 250 246 245 246 247 243 238 238 242 244 244 243 242 241 243 246 246
289 291 293 295 296 297 297 297 296 295 295 295 295 296 296 295 295 294 292 291 290 289 288 287 286 285 284 284 283 283 282 282 281 281 281 280 279 278 276 274 273 273 273 273 274 273 272 271 270 268 267 265 265 265 266 266 267 267 268 266 264 262 261 262 263 263 261 258 254 249 246 245 246 246 241 237 238 242 244 243 242 241 242 244 246
294 295 296 297 298 298 297 297 296 296 296 297 297 296 296 294 293 292 291 290 289 288 287 286 286 285 285 284 283 283 282 282 282 281 280 280 279 277 276 274 273 273 273 273 272 271 270 269 269 268 267 265 264 264 264 264 265 265 266 266 265 264 261 259 259 260 260 258 255 252 250 247 244 244 244 241 239 240 242 242 242 242 242 242 243
296 297 297 298 297 297 297 296 296 297 297 297 296 295 294 293 292 291 290 289 289 288 288 287 287 286 285 285 284 284 283 282 282 281 280 279 278 277 276 275 274 273 273 272 271 270 269 268 267 267 266 266 264 263 262 262 262 263 263 264 264 264 263 260 258 258 258 258 255 252 251 250 245 242 242 244 243 242 241 240 241 241 242 242 242
296 297 297 297 296 296 296 296 296 297 296 296 295 294 293 293 292 291 291 290 290 289 289 289 288 287 287 286 285 284 283 282 281 280 280 279 278 277 276 275 275 274 273 272 270 269 268 267 267 266 265 265 264 263 262 261 261 261 261 262 263 263 263 262 259 256 256 256 255 252 250 250 248 243 240 242 244 245 242 240 239 240 241 242 243
297 296 297 296 296 296 297 297 297 297 296 296 295 294 294 293 293 292 292 291 291 290 290 289 289 288 287 286 285 285 284 283 282 281 280 279 278 277 276 276 275 274 274 272 271 269 268 267 266 265 265 264 263 262 262 261 260 260 260 260 261 261 262 262 260 257 255 255 255 252 249 249 249 246 242 240 241 244 244 241 239 240 242 244 245
296 296 296 296 296 296 296 297 297 297 297 297 296 296 295 294 294 293 293 293 292 291 291 290 290 289 288 287 287 286 285 284 283 282 281 280 279 278 277 277 276 274 273 272 271 270 269 267 266 264 263 263 262 261 261 261 260 260 259 259 260 260 260 261 261 258 256 254 253 253 250 248 248 248 245 242 240 241 243 242 241 241 243 245 246
295 296 296 296 296 297 297 298 299 299 298 298 297 297 296 296 296 295 295 294 293 293 292 292 291 290 289 288 288 287 286 285 284 283 282 281 280 279 278 277 276 275 273 272 271 270 269 267 266 264 263 262 261 261 260 260 260 259 259 259 259 259 259 260 260 260 258 254 252 252 251 250 248 248 247 246 242 241 242 243 242 242 243 244 244
296 297 297 298 298 299 300 300 300 300 299 299 298 298 297 297 297 296 295 295 294 293 292 292 291 291 290 289 288 287 286 285 285 284 283 282 281 280 278 277 276 274 273 272 271 270 268 267 265 264 262 261 260 260 259 259 259 258 258 258 258 258 258 258 258 259 259 257 254 251 250 250 249 248 247 247 245 242 241 242 242 242 243 244 243
298 299 300 300 301 301 301 301 300 300 299 299 299 298 298 297 297 296 295 295 294 293 293 292 292 292 291 290 289 288 287 286 285 285 284 283 282 280 279 278 276 275 273 272 271 270 268 267 265 264 262 260 260 259 258 258 257 257 257 257 257 257 257 257 258 258 258 258 256 253 250 249 249 249 247 247 247 245 242 240 240 242 242 242 241
300 301 301 302 302 301 301 300 300 300 300 300 300 299 299 298 297 297 296 296 296 296 295 295 295 294 293 292 291 290 289 288 287 286 285 284 283 282 280 279 277 276 274 273 271 270 268 267 265 263 262 260 259 258 258 257 256 256 257 257 257 257 257 257 257 257 257 258 257 255 251 249 248 248 248 247 248 248 244 240 238 239 241 241 240
301 301 302 302 302 302 301 302 302 302 302 302 301 301 300 299 299 299 299 299 299 298 298 297 297 296 295 294 293 292 291 290 289 288 287 285 284 283 282 281 279 277 275 273 272 270 268 266 265 263 261 259 258 258 257 256 256 255 256 256 257 257 257 257 257 257 256 256 255 255 253 250 248 247 247 247 247 248 245 240 237 238 239 240 240
301 302 302 303 303 303 303 303 304 304 303 303 302 301 301 301 301 301 301 300 300 299 299 298 298 297 296 295 294 293 292 291 290 289 287 286 285 284 283 282 281 279 277 275 273 271 269 267 265 263 261 259 258 257 256 256 256 255 255 256 256 257 257 257 256 256 255 254 254 254 252 250 248 247 246 245 245 245 244 240 236 236 237 238 240
302 303 303 304 304 304 304 304 304 304 303 303 303 303 303 303 303 303 302 302 301 301 300 300 299 298 297 296 295 293 293 292 291 289 288 287 286 285 284 283 281 280 279 277 275 272 270 268 266 263 262 260 258 257 256 256 255 255 255 255 255 256 256 256 256 255 254 254 253 252 251 250 248 246 245 244 243 244 244 240 236 235 236 237 239
304 304 304 304 304 304 305 305 305 304 304 304 304 304 304 304 304 304 303 303 302 302 302 301 300 299 298 296 295 294 294 293 292 291 289 288 287 286 284 282 280 278 277 276 275 273 271 269 267 265 263 261 258 256 256 255 255 254 254 254 254 254 254 255 255 255 254 253 252 250 250 249 248 246 245 245 244 244 245 242 237 234 233 235 237
304 304 304 305 305 306 306 306 306 307 307 307 307 306 306 305 305 304 304 304 303 303 302 301 300 299 298 298 297 297 296 295 294 293 291 290 289 287 285 283 280 277 275 273 273 273 272 271 269 267 265 262 259 256 254 254 254 253 253 253 253 253 253 253 253 253 253 252 251 249 249 248 247 245 244 244 245 244 244 243 239 234 231 232 235
305 305 306 307 307 308 308 308 308 308 308 308 308 307 307 306 306 305 305 305 304 303 303 302 301 300 300 300 300 300 300 298 296 294 293 292 291 289 287 285 282 278 275 273 271 271 272 272 271 269 266 263 259 255 253 252 252 251 251 251 252 252 252 251 252 252 252 252 251 249 247 247 246 244 243 244 245 245 245 243 239 235 232 232 234
307 307 308 309 309 309 309 309 310 309 309 309 309 308 307 307 307 307 307 306 305 304 304 303 302 302 303 302 302 302 301 298 296 295 294 294 292 290 288 286 284 281 277 274 272 271 271 272 271 270 267 264 259 255 252 250 250 250 250 250 250 251 251 251 251 251 251 251 250 248 247 246 245 243 243 243 244 245 246 245 239 235 233 233 233
309 309 310 310 310 310 310 310 310 310 310 309 309 308 308 308 308 308 308 307 306 306 305 304 304 304 304 303 303 302 300 297 295 295 295 294 293 292 291 288 286 282 279 276 274 272 271 272 271 269 266 263 259 254 251 249 248 248 248 249 249 250 250 250 250 251 251 250 249 248 246 246 245 243 241 242 243 243 245 244 240 235 234 232 232
311 311 311 311 311 311 311 311 311 311 310 310 310 310 310 310 310 310 309 309 308 307 307 306 306 305 305 304 304 303 300 297 295 294 294 294 295 296 295 292 288 284 281 278 275 273 271 270 269 267 264 261 257 252 249 248 248 248 248 248 249 250 250 251 250 251 250 249 248 247 246 245 244 242 240 240 241 242 243 243 240 236 234 232 231
311 311 311 311 311 311 311 311 311 311 311 311 312 312 312 311 311 311 311 311 310 309 309 308 308 307 307 306 306 304 301 299 297 294 293 294 296 298 298 295 292 288 286 283 279 275 272 270 268 266 263 260 255 251 248 247 247 247 248 248 249 250 251 252 251 251 250 249 248 246 245 245 243 240 239 238 239 241 241 240 236 234 232 230 230
312 311 311 312 312 312 312 312 312 312 313 313 313 314 313 313 312 312 312 312 311 310 310 309 309 309 308 308 307 305 303 301 300 298 297 296 297 298 298 296 294 293 293 290 285 280 276 273 271 268 264 260 255 251 248 247 247 248 249 249 250 251 251 252 252 251 250 249 248 247 246 245 242 238 237 237 238 240 240 238 233 230 227 226 228
312 312 312 312 313 313 313 313 314 314 315 315 315 315 314 314 314 313 313 313 313 312 311 310 310 310 310 309 308 307 306 304 303 303 302 300 298 298 297 296 295 296 297 295 291 285 280 276 273 269 264 260 255 251 249 248 248 249 250 251 251 252 251 251 252 251 249 248 247 247 246 244 242 238 236 237 239 239 238 236 233 229 227 226 228
312 313 313 313 313 314 314 315 316 316 317 317 316 316 316 316 316 315 314 314 314 313 312 311 311 311 311 311 310 310 309 307 306 306 305 302 300 298 296 295 296 298 298 296 293 290 285 281 276 270 264 259 255 252 250 249 249 250 250 250 250 249 249 249 250 249 248 247 246 246 244 242 240 238 236 237 239 237 234 234 234 231 229 228 229
313 314 315 315 315 316 317 317 318 318 318 318 318 317 317 317 318 318 317 316 315 315 313 312 312 312 312 312 311 310 308 307 307 308 306 304 302 299 295 294 296 299 299 296 294 292 290 286 282 275 266 260 255 252 250 248 247 246 246 245 245 245 246 247 248 247 247 246 246 244 242 239 238 237 236 237 237 234 230 230 230 229 229 229 230
316 316 317 317 317 318 319 319 320 319 319 319 319 319 319 319 319 318 318 318 318 317 315 313 312 312 312 311 310 309 307 306 307 309 308 305 303 300 296 295 297 300 300 297 295 293 291 287 283 276 266 258 253 250 248 245 243 242 241 241 241 241 241 243 243 244 244 244 243 242 238 237 236 236 235 237 236 231 227 226 226 225 226 229 231
317 318 318 319 319 320 321 321 321 321 321 322 322 322 321 320 320 320 321 321 321 319 317 315 313 312 311 311 311 310 308 307 308 310 310 307 304 302 299 298 299 301 303 301 297 294 289 285 279 271 262 254 249 245 242 241 240 239 238 237 236 235 235 235 235 236 236 237 238 237 235 235 235 235 236 236 233 227 224 223 222 222 224 229 231
319 319 320 320 321 321 322 322 323 323 324 324 324 323 322 321 321 322 323 323 322 320 318 316 315 314 313 312 312 311 308 307 308 310 310 309 307 304 302 300 300 302 304 305 303 297 289 282 276 267 258 250 245 240 237 236 235 234 233 232 231 231 232 232 230 230 232 233 233 232 232 232 234 235 236 233 227 221 220 220 220 222 226 228 227
321 321 321 322 322 323 323 324 325 325 326 325 324 324 323 323 323 323 324 323 322 321 318 317 316 316 316 315 313 311 308 306 307 309 310 311 310 307 304 302 301 303 305 307 305 300 293 284 276 266 255 247 242 238 235 233 232 231 231 232 234 236 238 237 233 232 234 235 234 233 232 232 234 236 234 228 221 217 217 218 222 227 229 228 225
322 322 323 323 324 325 326 327 327 328 328 327 327 326 326 325 325 324 324 324 323 322 320 319 319 319 319 318 315 312 308 304 304 306 310 313 313 310 305 303 303 303 304 303 302 301 296 285 274 263 254 245 239 236 233 231 231 232 233 236 240 243 244 242 237 234 235 236 236 237 237 236 235 232 227 222 218 216 216 219 226 232 234 233 232
323 323 324 325 326 327 328 329 330 330 330 330 330 330 330 329 328 327 326 326 325 324 324 323 324 325 324 322 321 318 312 305 301 302 308 313 314 310 306 304 302 302 302 301 301 300 294 283 269 260 252 245 239 235 233 230 228 228 228 231 236 240 240 239 237 238 239 239 238 238 237 235 230 224 219 217 215 213 215 222 229 234 237 237 237
324 325 326 327 328 329 330 332 332 332 333 335 336 336 335 333 332 330 330 330 330 330 331 331 331 330 329 328 329 327 322 313 306 306 309 313 313 309 307 304 303 303 302 301 299 297 291 278 267 259 252 246 242 239 236 231 229 229 229 228 229 232 235 237 239 240 239 236 231 229 227 225 221 215 211 210 209 209 215 223 229 233 235 237 238
326 327 328 329 330 331 332 333 334 336 338 340 341 340 339 337 336 336 337 337 337 337 337 338 337 335 335 336 339 340 337 332 326 322 318 316 313 312 310 308 305 306 304 299 296 294 286 274 266 261 256 251 247 243 237 230 228 231 231 229 230 232 235 238 240 239 234 227 220 214 211 211 209 206 203 204 205 208 214 221 227 230 232 233 235
328 329 329 330 331 332 333 335 338 340 342 343 344 344 344 344 343 342 343 343 342 340 340 341 341 341 341 343 348 352 355 354 348 340 331 325 322 322 320 316 313 312 308 298 290 287 283 274 267 261 256 248 233 215 206 206 210 218 226 233 238 238 236 236 236 232 228 222 213 204 199 199 200 200 201 204 207 210 213 219 224 227 228 230 232
330 329 330 331 332 333 335 338 341 343 344 346 348 349 350 350 349 348 346 346 344 342 341 342 344 345 346 348 351 357 2 1 355 348 341 335 332 330 328 325 322 318 308 294 283 277 275 272 266 254 238 215 196 187 188 194 201 210 223 232 237 240 242 242 234 225 220 217 209 201 196 197 199 202 206 208 209 209 212 217 223 227 229 232 233
330 330 330 331 332 334 337 340 343 344 346 349 351 353 354 354 353 351 348 347 345 344 343 343 346 348 350 351 356 2 4 2 357 350 345 341 341 341 338 335 331 325 316 301 282 266 263 265 256 232 212 198 188 182 181 184 191 198 203 211 226 240 248 237 212 202 197 194 194 198 201 201 203 206 207 207 205 207 212 219 225 226 227 230 232
331 331 331 331 333 336 339 342 343 345 347 350 352 354 355 356 356 354 351 349 348 347 347 349 351 352 351 352 358 4 6 3 359 354 347 341 339 342 345 344 339 333 326 312 283 260 258 253 219 202 203 200 193 188 185 180 175 174 180 198 224 238 220 157 159 175 173 165 168 183 192 194 197 202 205 204 204 207 214 223 227 226 226 229 230
331 331 331 331 334 337 340 343 344 345 348 350 352 355 357 357 357 356 355 354 353 353 357 2 3 360 357 355 355 356 0 3 3 1 356 350 345 344 346 344 340 339 336 321 279 239 226 206 183 178 179 180 183 188 185 172 160 161 175 187 195 178 132 122 133 163 166 153 149 156 164 168 176 187 194 198 203 208 215 223 228 230 232 236 235
332 331 330 331 333 337 341 343 344 346 349 350 353 356 358 359 358 358 358 358 357 359 7 13 8 2 0 1 0 360 4 7 7 10 13 14 12 8 3 354 348 347 349 346 196 178 167 157 156 162 169 169 171 175 174 168 164 171 176 166 139 120 114 107 101 107 127 134 133 134 137 141 150 163 175 184 193 203 211 218 225 232 234 234 235
332 331 329 330 333 338 340 342 344 347 349 351 354 358 360 360 0 0 1 360 359 359 5 8 4 1 4 8 12 21 27 20 16 21 26 27 23 15 7 2 2 0 3 32 118 143 147 147 150 158 167 170 170 169 169 173 176 173 168 159 148 135 119 106 99 97 100 106 109 109 112 120 132 148 164 174 180 189 202 215 225 234 235 229 224
331 330 329 330 334 337 339 342 345 348 349 352 357 360 1 1 2 3 3 2 360 357 1 5 7 11 16 17 18 23 30 30 31 35 40 45 46 38 20 9 14 21 28 68 116 135 142 144 149 160 172 181 180 173 173 182 185 176 166 162 159 146 119 104 104 103 94 91 96 104 115 125 132 141 153 162 169 177 188 199 207 210 212 211 207
Height
5889 5889 5889 5888 5888 5887 5887 5886 5886 5885 5884 5883 5882 5882 5881 5880 5879 5878 5877 5876 5875 5874 5873 5872 5871 5870 5869 5868 5867 5866 5866 5865 5864 5863 5862 5861 5860 5859 5858 5857 5857 5856 5856 5856 5855 5853 5852 5852 5851 5850 5850 5850 5850 5850 5851 5853 5853 5853 5854 5855 5857 5859 5860 5862 5865 5866 5865 5865 5868 5869 5870 5872 5874 5875 5875 5876 5877 5878 5880 5881 5882 5883 5884 5884 5885
5887 5887 5886 5886 5886 5885 5885 5884 5883 5883 5882 5881 5880 5879 5878 5877 5876 5875 5874 5873 5872 5871 5870 5869 5868 5867 5865 5864 5863 5863 5862 5861 5860 5859 5858 5857 5856 5855 5855 5854 5853 5853 5852 5852 5851 5851 5850 5848 5847 5846 5846 5846 5847 5846 5847 5847 5848 5849 5849 5850 5852 5854 5855 5857 5860 5862 5861 5860 5862 5865 5866 5868 5870 5871 5871 5872 5873 5875 5877 5877 5879 5880 5881 5882 5882
5885 5884 5884 5884 5883 5883 5882 5881 5881 5880 5879 5878 5877 5876 5875 5874 5873 5872 5871 5869 5868 5867 5866 5865 5864 5863 5862 5861 5860 5859 5858 5857 5856 5855 5854 5853 5852 5851 5850 5850 5850 5849 5848 5847 5847 5847 5846 5845 5844 5842 5841 5842 5842 5842 5842 5842 5843 5844 5845 5845 5847 5848 5850 5851 5853 5856 5857 5856 5856 5859 5861 5863 5866 5867 5867 5868 5870 5871 5873 5874 5875 5876 5878 5878 5879
5882 5882 5882 5881 5881 5880 5879 5879 5878 5877 5876 5875 5874 5873 5872 5871 5870 5868 5867 5866 5865 5863 5862 5861 5860 5859 5858 5857 5856 5855 5854 5853 5852 5851 5850 5849 5848 5847 5846 5845 5845 5845 5844 5844 5843 5842 5842 5842 5841 5839 5838 5837 5838 5838 5838 5838 5838 5839 5840 5840 5841 5842 5843 5844 5846 5849 5852 5853 5853 5853 5855 5858 5861 5862 5863 5864 5866 5867 5869 5870 5871 5873 5874 5875 5876
5879 5879 5879 5879 5878 5877 5876 5875 5875 5874 5873 5872 5871 5869 5868 5867 5866 5864 5863 5862 5861 5859 5858 5857 5856 5855 5854 5853 5851 5850 5849 5848 5847 5846 5845 5844 5843 5842 5841 5840 5840 5840 5839 5839 5839 5838 5838 5837 5837 5836 5835 5834 5833 5833 5833 5834 5834 5834 5835 5835 5835 5837 5837 5838 5840 5842 5845 5848 5849 5848 5849 5852 5855 5857 5859 5860 5861 5863 5865 5867 5868 5869 5870 5871 5872
5877 5877 5877 5876 5875 5874 5873 5872 5871 5870 5869 5867 5866 5865 5864 5862 5861 5860 5859 5858 5856 5855 5854 5852 5851 5850 5849 5848 5847 5845 5844 5843 5842 5841 5840 5840 5839 5838 5837 5836 5835 5835 5834 5834 5834 5833 5833 5833 5832 5831 5831 5830 5829 5829 5829 5829 5829 5830 5830 5830 5830 5831 5832 5833 5834 5836 5839 5842 5844 5844 5845 5846 5849 5852 5854 5855 5857 5859 5861 5863 5864 5865 5866 5867 5868
5875 5874 5874 5873 5872 5871 5870 5868 5867 5866 5864 5863 5861 5860 5859 5858 5856 5855 5854 5853 5851 5850 5849 5847 5846 5845 5844 5843 5842 5840 5839 5838 5837 5836 5835 5835 5834 5833 5833 5832 5831 5830 5829 5829 5828 5828 5828 5828 5827 5827 5826 5826 5825 5825 5824 5824 5825 5825 5825 5825 5825 5825 5826 5828 5829 5831 5833 5836 5838 5840 5840 5841 5843 5846 5848 5850 5852 5855 5857 5858 5859 5860 5861 5862 5863
5872 5871 5870 5869 5868 5867 5865 5864 5863 5861 5860 5858 5857 5855 5854 5852 5851 5850 5848 5847 5846 5845 5844 5842 5841 5840 5839 5837 5836 5835 5834 5833 5832 5831 5830 5829 5829 5828 5828 5827 5826 5825 5825 5824 5823 5823 5823 5823 5822 5822 5821 5821 5821 5820 5820 5819 5820 5820 5820 5820 5820 5820 5821 5822 5823 5825 5827 5830 5832 5834 5836 5836 5838 5840 5842 5844 5848 5851 5851 5852 5854 5855 5856 5858 5859
5868 5867 5866 5865 5863 5862 5861 5860 5858 5857 5855 5854 5852 5851 5849 5848 5846 5845 5843 5842 5841 5839 5838 5837 5836 5834 5833 5832 5831 5830 5829 5828 5827 5826 5825 5824 5823 5823 5822 5821 5821 5820 5819 5819 5818 5818 5817 5817 5817 5817 5816 5816 5816 5815 5815 5814 5814 5815 5816 5815 5816 5816 5816 5817 5818 5819 5821 5823 5826 5828 5830 5831 5833 5834 5836 5839 5842 5844 5844 5845 5848 5851 5851 5852 5854
5864 5862 5861 5860 5859 5858 5856 5855 5854 5852 5851 5849 5847 5846 5844 5842 5841 5839 5838 5837 5835 5834 5833 5831 5830 5829 5828 5826 5825 5824 5823 5822 5821 5820 5819 5818 5818 5817 5816 5816 5815 5815 5814 5813 5813 5812 5812 5812 5812 5812 5811 5811 5810 5810 5810 5809 5809 5809 5810 5810 5811 5811 5811 5811 5812 5813 5815 5817 5820 5822 5824 5826 5828 5828 5829 5833 5835 5836 5838 5840 5843 5845 5845 5847 5850
5859 5858 5857 5856 5854 5853 5852 5850 5849 5847 5846 5844 5842 5840 5839 5837 5835 5834 5832 5831 5830 5828 5827 5826 5824 5823 5822 5820 5819 5818 5817 5815 5814 5814 5813 5812 5811 5811 5811 5810 5809 5809 5808 5808 5807 5806 5806 5806 5806 5806 5806 5805 5805 5805 5805 5804 5804 5804 5804 5805 5805 5805 5806 5806 5807 5807 5809 5810 5813 5815 5817 5820 5822 5822 5823 5826 5828 5829 5831 5834 5836 5838 5839 5842 5844
5855 5854 5853 5852 5850 5849 5847 5845 5843 5842 5840 5839 5837 5835 5834 5832 5830 5829 5827 5826 5824 5823 5821 5820 5818 5817 5816 5815 5813 5812 5810 5809 5808 5807 5807 5806 5805 5805 5805 5804 5804 5803 5802 5802 5801 5800 5800 5799 5799 5799 5799 5799 5799 5799 5799 5799 5799 5798 5798 5799 5799 5800 5801 5801 5802 5802 5803 5804 5807 5809 5811 5813 5816 5817 5818 5819 5821 5822 5824 5826 5829 5832 5834 5836 5838
5850 5849 5848 5847 5846 5844 5842 5840 5838 5837 5835 5834 5832 5830 5829 5827 5825 5824 5822 5820 5819 5817 5815 5814 5812 5811 5810 5809 5807 5806 5804 5803 5802 5801 5800 5799 5799 5799 5798 5798 5798 5797 5796 5795 5795 5794 5794 5793 5793 5793 5793 5793 5793 5793 5793 5793 5793 5793 5793 5793 5793 5794 5795 5796 5796 5797 5797 5798 5800 5803 5804 5806 5809 5811 5812 5813 5814 5815 5817 5820 5823 5826 5827 5830 5832
5847 5845 5844 5843 5841 5840 5838 5836 5834 5832 5831 5829 5827 5826 5824 5822 5820 5819 5817 5815 5813 5811 5810 5808 5807 5805 5804 5803 5801 5800 5798 5797 5796 5795 5794 5793 5792 5792 5792 5791 5791 5790 5789 5789 5788 5788 5787 5787 5787 5786 5786 5786 5786 5786 5787 5787 5787 5787 5787 5788 5788 5788 5789 5789 5790 5791 5791 5792 5794 5797 5798 5799 5801 5804 5805 5806 5807 5809 5811 5814 5817 5818 5821 5823 5826
5842 5841 5840 5838 5837 5835 5834 5832 5830 5828 5826 5824 5822 5821 5819 5817 5815 5813 5812 5810 5808 5806 5804 5803 5801 5799 5798 5796 5795 5793 5792 5790 5789 5788 5787 5786 5785 5785 5784 5784 5783 5783 5782 5782 5781 5781 5780 5780 5780 5780 5780 5779 5779 5779 5780 5780 5780 5781 5781 5782 5782 5783 5783 5783 5784 5785 5785 5786 5788 5791 5793 5793 5794 5797 5798 5799 5801 5803 5806 5808 5810 5812 5814 5817 5820
5838 5837 5835 5834 5832 5830 5829 5827 5825 5823 5821 5819 5817 5815 5813 5811 5809 5808 5806 5804 5802 5800 5799 5797 5795 5793 5792 5790 5789 5787 5785 5784 5783 5782 5780 5779 5778 5778 5777 5776 5776 5775 5775 5774 5773 5773 5773 5773 5773 5773 5773 5773 5772 5772 5773 5773 5774 5775 5775 5776 5776 5777 5778 5778 5777 5778 5779 5780 5782 5785 5787 5787 5787 5790 5792 5792 5794 5797 5799 5801 5804 5807 5809 5812 5816
5834 5832 5831 5829 5827 5825 5824 5822 5820 5818 5816 5814 5812 5810 5808 5806 5804 5802 5801 5799 5797 5795 5793 5791 5789 5788 5786 5784 5782 5781 5779 5777 5775 5774 5773 5772 5771 5770 5770 5769 5769 5768 5767 5766 5766 5766 5766 5765 5765 5765 5765 5765 5765 5765 5765 5766 5767 5768 5769 5769 5770 5771 5772 5772 5771 5772 5773 5774 5776 5778 5780 5781 5782 5784 5785 5786 5788 5790 5791 5794 5799 5802 5804 5806 5810
5830 5828 5826 5825 5823 5821 5819 5817 5815 5813 5811 5809 5807 5804 5802 5801 5799 5797 5795 5793 5792 5789 5787 5786 5784 5781 5779 5778 5776 5774 5772 5770 5768 5766 5765 5764 5763 5762 5762 5761 5761 5760 5759 5758 5758 5758 5758 5758 5757 5758 5758 5758 5758 5758 5758 5759 5760 5761 5762 5763 5764 5765 5766 5765 5765 5766 5767 5768 5770 5772 5774 5776 5777 5778 5780 5780 5782 5783 5784 5789 5795 5797 5797 5800 5804
5826 5824 5822 5820 5818 5816 5814 5812 5810 5808 5806 5804 5801 5799 5797 5796 5793 5791 5790 5788 5786 5784 5782 5780 5778 5775 5773 5771 5769 5767 5765 5763 5760 5759 5757 5756 5755 5754 5753 5753 5752 5752 5751 5750 5750 5750 5750 5749 5749 5749 5750 5750 5750 5750 5751 5752 5753 5753 5754 5755 5757 5758 5759 5758 5759 5760 5761 5762 5764 5766 5768 5770 5771 5773 5774 5774 5776 5776 5778 5784 5789 5790 5792 5796 5799
5821 5819 5817 5815 5813 5811 5809 5807 5805 5803 5801 5799 5796 5794 5792 5790 5788 5786 5784 5782 5780 5778 5775 5773 5771 5769 5766 5763 5761 5759 5758 5756 5754 5752 5750 5748 5747 5745 5745 5744 5744 5743 5743 5742 5742 5742 5741 5741 5741 5741 5741 5742 5742 5743 5744 5744 5745 5746 5747 5748 5750 5751 5751 5752 5753 5754 5755 5756 5758 5760 5762 5763 5765 5767 5768 5769 5770 5771 5773 5778 5782 5783 5786 5789 5792
5816 5814 5812 5811 5809 5807 5804 5802 5800 5797 5795 5794 5791 5789 5787 5785 5783 5780 5778 5776 5774 5771 5769 5766 5765 5762 5759 5756 5754 5752 5749 5748 5746 5744 5742 5740 5738 5737 5736 5735 5735 5734 5734 5734 5733 5733 5732 5732 5732 5732 5733 5733 5734 5735 5736 5736 5737 5739 5740 5741 5742 5743 5744 5745 5746 5747 5749 5750 5751 5753 5755 5757 5758 5760 5762 5763 5765 5766 5768 5772 5775 5776 5778 5782 5785
5812 5810 5808 5806 5804 5802 5799 5797 5794 5792 5790 5788 5786 5783 5781 5779 5776 5774 5772 5769 5767 5765 5762 5760 5758 5755 5752 5749 5746 5744 5741 5740 5738 5736 5734 5732 5730 5728 5727 5726 5725 5725 5725 5725 5724 5724 5723 5723 5722 5722 5723 5724 5726 5726 5727 5728 5730 5731 5732 5733 5734 5736 5737 5738 5739 5740 5742 5743 5745 5746 5748 5750 5752 5754 5756 5758 5759 5760 5762 5764 5767 5769 5772 5775 5778
5808 5806 5804 5802 5799 5796 5794 5791 5789 5787 5785 5783 5780 5778 5775 5773 5770 5767 5765 5763 5761 5758 5756 5753 5751 5749 5746 5742 5739 5736 5734 5732 5730 5728 5726 5724 5722 5721 5719 5718 5716 5715 5716 5716 5715 5715 5714 5713 5713 5713 5713 5715 5716 5717 5719 5720 5722 5723 5724 5725 5727 5728 5729 5731 5732 5733 5735 5736 5738 5740 5742 5743 5745 5747 5749 5751 5752 5753 5754 5757 5759 5761 5764 5768 5771
5804 5802 5799 5797 5794 5792 5789 5787 5785 5782 5780 5777 5775 5772 5769 5767 5764 5761 5759 5756 5754 5752 5749 5746 5744 5741 5739 5736 5732 5729 5727 5725 5722 5720 5719 5717 5715 5714 5712 5710 5709 5708 5707 5707 5707 5706 5705 5704 5704 5704 5705 5706 5707 5708 5710 5711 5713 5715 5716 5717 5719 5720 5722 5723 5724 5726 5727 5729 5731 5733 5735 5737 5738 5740 5742 5744 5745 5746 5748 5751 5752 5754 5757 5762 5765
5800 5797 5795 5792 5790 5788 5785 5782 5779 5777 5774 5771 5769 5766 5764 5761 5758 5756 5753 5750 5748 5745 5742 5739 5737 5734 5732 5729 5726 5723 5720 5718 5715 5713 5711 5710 5708 5706 5704 5703 5701 5700 5699 5698 5698 5698 5697 5697 5696 5696 5696 5697 5699 5700 5701 5703 5704 5706 5708 5710 5711 5713 5715 5716 5717 5719 5721 5722 5724 5726 5729 5730 5732 5734 5736 5737 5739 5741 5743 5745 5746 5748 5752 5756 5758
5795 5793 5790 5788 5785 5783 5780 5777 5774 5771 5768 5766 5763 5760 5758 5755 5753 5750 5747 5744 5741 5739 5736 5733 5730 5728 5725 5722 5720 5717 5714 5711 5708 5705 5703 5702 5700 5698 5696 5695 5693 5692 5691 5691 5690 5690 5690 5690 5689 5689 5688 5689 5690 5691 5693 5694 5696 5698 5700 5702 5704 5705 5707 5709 5710 5712 5714 5716 5718 5720 5722 5724 5725 5727 5729 5731 5733 5735 5737 5739 5741 5743 5747 5749 5750
5791 5788 5786 5783 5781 5778 5775 5772 5769 5766 5763 5760 5757 5754 5752 5749 5747 5744 5741 5738 5735 5732 5729 5726 5723 5721 5718 5716 5713 5711 5708 5704 5701 5698 5696 5694 5693 5691 5689 5687 5685 5684 5683 5683 5682 5683 5683 5682 5682 5681 5681 5681 5682 5683 5685 5686 5688 5691 5693 5695 5697 5698 5700 5702 5704 5706 5708 5709 5711 5713 5715 5717 5719 5721 5723 5725 5727 5730 5731 5733 5736 5738 5741 5743 5745
5786 5784 5781 5778 5775 5773 5770 5767 5765 5762 5759 5756 5753 5749 5746 5743 5741 5738 5735 5732 5729 5726 5723 5720 5717 5714 5712 5709 5707 5705 5702 5698 5694 5691 5689 5687 5685 5683 5682 5680 5678 5677 5676 5675 5675 5675 5675 5675 5675 5674 5674 5674 5675 5676 5678 5679 5681 5684 5687 5688 5690 5692 5694 5696 5698 5700 5701 5703 5704 5707 5709 5711 5713 5715 5717 5719 5721 5724 5726 5728 5731 5733 5735 5737 5740
5781 5779 5776 5773 5771 5768 5765 5763 5760 5757 5754 5751 5748 5744 5741 5738 5735 5732 5729 5725 5722 5719 5716 5714 5711 5708 5706 5704 5701 5699 5696 5693 5689 5686 5683 5680 5678 5676 5675 5674 5672 5671 5669 5668 5668 5668 5668 5668 5667 5667 5667 5667 5668 5669 5671 5673 5675 5678 5680 5682 5684 5686 5688 5690 5691 5693 5695 5696 5698 5701 5703 5705 5707 5709 5711 5713 5716 5718 5720 5722 5725 5727 5729 5731 5736
5777 5774 5772 5769 5766 5764 5761 5758 5755 5752 5750 5747 5743 5740 5735 5731 5728 5726 5723 5719 5715 5712 5710 5707 5705 5703 5700 5698 5695 5693 5690 5688 5685 5682 5678 5675 5672 5671 5670 5668 5666 5665 5664 5662 5662 5662 5661 5661 5660 5660 5660 5661 5662 5663 5665 5667 5670 5672 5675 5677 5679 5680 5682 5684 5686 5687 5689 5690 5693 5695 5697 5699 5702 5704 5705 5708 5709 5711 5713 5716 5719 5721 5724 5727 5732
5773 5770 5768 5765 5762 5760 5757 5754 5751 5748 5745 5741 5738 5735 5731 5726 5722 5719 5717 5714 5710 5707 5704 5701 5698 5696 5694 5692 5689 5687 5684 5681 5679 5677 5674 5671 5668 5666 5664 5662 5661 5659 5658 5657 5656 5656 5655 5654 5654 5654 5654 5655 5657 5658 5660 5662 5665 5667 5669 5671 5673 5675 5677 5678 5680 5681 5683 5685 5687 5689 5691 5694 5696 5698 5700 5702 5704 5705 5708 5710 5713 5715 5719 5723 5727
5769 5767 5764 5761 5758 5756 5753 5750 5747 5743 5740 5737 5733 5730 5727 5723 5719 5714 5711 5709 5706 5702 5698 5695 5693 5690 5687 5685 5683 5681 5678 5676 5674 5672 5669 5666 5664 5661 5660 5658 5656 5654 5654 5653 5652 5651 5650 5649 5649 5650 5650 5651 5652 5654 5656 5658 5660 5662 5664 5666 5668 5670 5671 5673 5674 5676 5678 5680 5682 5684 5686 5688 5690 5692 5695 5697 5699 5701 5703 5705 5707 5710 5713 5717 5721
5766 5763 5761 5758 5755 5752 5749 5746 5742 5739 5736 5732 5729 5725 5722 5719 5716 5711 5707 5704 5700 5697 5692 5689 5687 5684 5682 5679 5677 5675 5673 5671 5668 5667 5664 5662 5659 5657 5655 5653 5651 5650 5649 5649 5648 5647 5646 5645 5646 5646 5646 5647 5649 5650 5652 5654 5655 5657 5659 5661 5663 5665 5666 5668 5669 5671 5673 5675 5677 5679 5681 5683 5686 5688 5690 5692 5694 5696 5698 5701 5703 5706 5709 5712 5715
5762 5760 5757 5754 5751 5748 5745 5742 5738 5735 5731 5728 5724 5721 5717 5714 5711 5708 5704 5700 5696 5692 5688 5684 5681 5678 5676 5674 5671 5669 5667 5665 5663 5662 5660 5657 5655 5653 5651 5649 5647 5646 5645 5645 5644 5643 5642 5642 5642 5643 5643 5644 5645 5647 5648 5650 5651 5653 5655 5657 5658 5660 5661 5663 5665 5667 5668 5670 5672 5674 5677 5679 5681 5684 5686 5688 5690 5692 5695 5697 5700 5702 5705 5708 5710
5759 5756 5753 5750 5747 5744 5741 5737 5734 5731 5727 5724 5720 5716 5713 5710 5706 5703 5699 5696 5692 5689 5685 5680 5677 5674 5671 5669 5667 5665 5663 5660 5658 5657 5655 5652 5650 5649 5647 5645 5644 5643 5642 5641 5640 5640 5639 5639 5639 5639 5640 5641 5642 5643 5644 5646 5647 5649 5650 5652 5653 5655 5657 5658 5660 5662 5664 5666 5668 5670 5672 5674 5677 5679 5682 5684 5686 5689 5691 5694 5696 5699 5701 5704 5707
5755 5752 5749 5746 5743 5740 5737 5733 5730 5727 5723 5720 5716 5713 5709 5706 5702 5698 5695 5691 5688 5685 5681 5678 5674 5671 5668 5665 5663 5661 5659 5656 5654 5653 5651 5648 5646 5645 5643 5642 5641 5640 5639 5638 5637 5636 5636 5636 5636 5636 5637 5637 5638 5639 5641 5642 5643 5644 5645 5647 5648 5650 5651 5653 5655 5657 5659 5661 5663 5665 5668 5670 5673 5675 5678 5680 5682 5685 5688 5690 5692 5695 5698 5701 5703
5752 5749 5746 5743 5739 5736 5733 5730 5726 5723 5719 5716 5713 5709 5705 5701 5698 5694 5691 5687 5684 5680 5677 5674 5671 5668 5665 5661 5659 5657 5654 5651 5650 5649 5647 5645 5643 5641 5640 5639 5638 5637 5636 5635 5634 5634 5633 5633 5633 5633 5633 5634 5635 5635 5636 5637 5638 5639 5641 5642 5643 5644 5646 5647 5649 5651 5653 5656 5658 5661 5664 5666 5668 5671 5674 5676 5679 5681 5684 5686 5689 5692 5695 5697 5700
5749 5746 5743 5739 5736 5733 5730 5726 5723 5720 5716 5712 5709 5705 5701 5698 5694 5690 5687 5683 5679 5676 5672 5669 5666 5664 5661 5658 5655 5653 5650 5647 5646 5645 5643 5641 5640 5638 5637 5636 5636 5635 5634 5633 5632 5632 5631 5631 5631 5631 5631 5631 5631 5632 5633 5633 5634 5636 5637 5638 5639 5640 5641 5643 5644 5646 5649 5651 5654 5656 5659 5662 5664 5667 5670 5673 5675 5677 5680 5683 5686 5688 5691 5694 5697
5745 5742 5739 5736 5733 5730 5727 5724 5720 5717 5713 5710 5706 5702 5698 5694 5690 5687 5683 5679 5675 5671 5668 5664 5661 5659 5656 5654 5652 5649 5646 5644 5642 5641 5640 5639 5637 5636 5635 5634 5633 5632 5632 5631 5631 5630 5630 5629 5629 5629 5629 5629 5629 5629 5630 5631 5632 5634 5635 5637 5639 5640 5641 5642 5643 5645 5646 5648 5651 5653 5656 5659 5661 5664 5667 5669 5672 5674 5676 5679 5682 5685 5688 5691 5693
5742 5739 5736 5733 5730 5727 5724 5721 5718 5714 5711 5707 5703 5698 5694 5690 5687 5683 5679 5675 5671 5667 5664 5660 5657 5654 5652 5649 5647 5645 5643 5640 5639 5638 5637 5636 5635 5634 5633 5632 5631 5631 5630 5629 5629 5629 5628 5628 5627 5627 5627 5627 5627 5628 5629 5630 5631 5633 5635 5637 5639 5640 5641 5642 5643 5643 5645 5646 5649 5651 5654 5656 5658 5661 5663 5666 5669 5671 5673 5676 5679 5682 5685 5687 5689
5739 5737 5734 5731 5728 5725 5722 5719 5715 5712 5708 5704 5700 5695 5691 5687 5683 5679 5676 5672 5668 5664 5660 5657 5654 5651 5648 5645 5642 5640 5638 5637 5636 5635 5635 5634 5633 5632 5631 5631 5630 5629 5629 5628 5628 5627 5627 5626 5626 5626 5625 5626 5626 5627 5628 5629 5630 5632 5633 5635 5636 5638 5640 5641 5641 5642 5643 5645 5646 5648 5651 5653 5655 5658 5660 5663 5666 5669 5671 5674 5677 5680 5682 5684 5685
5737 5734 5731 5728 5725 5723 5720 5717 5713 5709 5705 5701 5697 5693 5689 5684 5680 5677 5673 5669 5665 5661 5658 5654 5651 5648 5644 5641 5639 5636 5634 5633 5633 5633 5633 5632 5631 5630 5630 5629 5629 5628 5627 5627 5626 5626 5626 5625 5625 5625 5625 5625 5626 5627 5628 5629 5631 5632 5633 5634 5635 5637 5638 5639 5640 5641 5642 5643 5644 5646 5648 5650 5653 5655 5658 5661 5664 5666 5669 5672 5674 5677 5678 5680 5681
5734 5732 5729 5726 5723 5721 5718 5715 5711 5707 5703 5699 5695 5691 5687 5682 5678 5674 5670 5666 5662 5659 5655 5652 5649 5646 5643 5640 5637 5634 5632 5631 5631 5631 5631 5630 5629 5629 5629 5628 5627 5627 5626 5626 5625 5625 5625 5624 5624 5624 5625 5626 5627 5628 5629 5631 5632 5633 5633 5633 5634 5635 5636 5637 5638 5639 5640 5641 5642 5644 5646 5648 5651 5654 5656 5659 5662 5664 5667 5669 5672 5673 5675 5677 5678
5732 5730 5727 5724 5722 5719 5716 5713 5710 5706 5702 5698 5694 5689 5685 5680 5676 5672 5668 5664 5660 5657 5654 5651 5648 5645 5642 5639 5637 5635 5633 5631 5631 5630 5630 5629 5629 5628 5628 5627 5626 5626 5625 5625 5624 5624 5624 5624 5624 5624 5625 5626 5627 5628 5629 5630 5631 5632 5633 5634 5635 5635 5636 5636 5637 5637 5639 5640 5641 5642 5645 5647 5650 5653 5655 5658 5660 5662 5665 5667 5669 5671 5673 5674 5675
5730 5728 5725 5723 5720 5717 5714 5711 5708 5704 5701 5697 5692 5688 5683 5679 5674 5670 5666 5662 5659 5655 5652 5649 5647 5644 5642 5640 5637 5635 5634 5632 5631 5630 5630 5629 5628 5628 5627 5626 5626 5625 5624 5624 5623 5623 5623 5623 5624 5624 5625 5626 5627 5627 5628 5629 5630 5632 5633 5635 5636 5636 5636 5636 5636 5637 5638 5640 5641 5643 5645 5647 5649 5652 5654 5656 5658 5660 5663 5665 5667 5669 5670 5671 5673
5728 5726 5723 5721 5718 5716 5713 5710 5707 5704 5700 5696 5692 5687 5683 5678 5673 5669 5665 5661 5658 5655 5652 5649 5646 5644 5642 5640 5638 5637 5635 5634 5632 5631 5630 5629 5628 5628 5627 5626 5625 5624 5624 5623 5623 5623 5623 5623 5624 5624 5625 5626 5626 5626 5628 5629 5631 5632 5634 5635 5636 5637 5637 5637 5637 5638 5639 5640 5641 5643 5645 5646 5648 5651 5653 5655 5657 5659 5661 5663 5665 5666 5667 5669 5670
5727 5724 5722 5719 5717 5714 5712 5709 5706 5703 5699 5695 5691 5687 5683 5678 5673 5669 5664 5661 5657 5654 5651 5649 5646 5644 5642 5640 5639 5638 5636 5635 5633 5632 5630 5629 5628 5627 5626 5625 5625 5624 5623 5623 5623 5623 5623 5624 5624 5625 5626 5626 5627 5628 5629 5630 5631 5633 5635 5635 5636 5637 5637 5638 5639 5640 5640 5640 5641 5643 5644 5645 5648 5650 5652 5654 5656 5658 5660 5661 5663 5664 5665 5666 5668
5725 5723 5720 5718 5715 5713 5710 5708 5705 5702 5698 5695 5691 5687 5683 5678 5673 5669 5664 5660 5657 5654 5652 5649 5647 5645 5643 5641 5640 5638 5637 5636 5634 5633 5631 5629 5628 5627 5626 5625 5625 5624 5623 5623 5623 5623 5623 5624 5625 5625 5626 5628 5628 5630 5631 5632 5632 5634 5635 5636 5636 5637 5638 5639 5640 5642 5642 5642 5642 5643 5644 5645 5647 5649 5651 5652 5654 5656 5658 5660 5661 5662 5664 5664 5665
5723 5721 5719 5716 5714 5712 5709 5707 5705 5702 5698 5695 5691 5687 5683 5678 5674 5669 5664 5660 5657 5655 5653 5651 5648 5646 5643 5642 5640 5639 5638 5637 5636 5634 5632 5630 5629 5627 5626 5626 5625 5625 5624 5623 5623 5623 5624 5625 5626 5626 5627 5628 5630 5631 5632 5633 5634 5636 5636 5637 5637 5638 5639 5639 5640 5642 5642 5643 5643 5643 5644 5645 5647 5648 5649 5651 5653 5655 5657 5659 5660 5661 5662 5663 5664
5722 5720 5718 5715 5713 5711 5709 5706 5704 5701 5698 5695 5691 5687 5683 5679 5674 5670 5665 5661 5657 5655 5653 5652 5650 5647 5645 5643 5641 5639 5639 5638 5637 5635 5633 5632 5630 5628 5627 5627 5626 5625 5624 5624 5624 5624 5625 5626 5626 5627 5628 5629 5630 5632 5633 5634 5636 5637 5638 5638 5639 5639 5640 5640 5641 5642 5643 5643 5644 5644 5644 5645 5646 5648 5649 5650 5652 5654 5656 5657 5659 5660 5660 5661 5663
5721 5719 5717 5714 5712 5710 5708 5706 5704 5701 5698 5695 5692 5688 5684 5680 5675 5670 5665 5661 5657 5655 5654 5653 5651 5649 5646 5644 5642 5641 5640 5639 5638 5637 5635 5632 5631 5629 5629 5628 5627 5626 5625 5625 5625 5625 5625 5626 5627 5628 5629 5630 5630 5632 5633 5635 5636 5637 5639 5639 5640 5640 5641 5641 5642 5643 5644 5644 5645 5645 5646 5647 5647 5648 5650 5651 5652 5653 5655 5656 5658 5659 5660 5661 5662